TimeEDT,TemperatureF,Dew PointF,Humidity,Sea Level PressureIn,VisibilityMPH,Wind Direction,Wind SpeedMPH,Gust SpeedMPH,PrecipitationIn,Events,Conditions,WindDirDegrees,DateUTC
12:43 AM,62.6,59.0,88,30.16,6.0,NE,4.6,-,N/A,,Overcast,50,2012-10-26 04:43:00
12:53 AM,62.1,59.0,90,30.14,7.0,ENE,4.6,-,N/A,,Overcast,60,2012-10-26 04:53:00
1:53 AM,62.1,59.0,90,30.14,6.0,ENE,4.6,-,N/A,,Overcast,70,2012-10-26 05:53:00
2:53 AM,61.0,59.0,93,30.14,5.0,East,4.6,-,N/A,,Overcast,80,2012-10-26 06:53:00
3:53 AM,61.0,59.0,93,30.14,5.0,ENE,4.6,-,N/A,,Overcast,70,2012-10-26 07:53:00
4:53 AM,61.0,59.0,93,30.14,5.0,ENE,3.5,-,N/A,,Overcast,60,2012-10-26 08:53:00
5:53 AM,61.0,57.9,90,30.14,5.0,North,3.5,-,N/A,,Overcast,350,2012-10-26 09:53:00
6:05 AM,60.8,59.0,94,30.17,5.0,Calm,Calm,-,N/A,,Overcast,0,2012-10-26 10:05:00
6:53 AM,60.1,57.9,93,30.16,5.0,NE,3.5,-,N/A,,Overcast,40,2012-10-26 10:53:00
7:15 AM,57.2,57.2,100,30.17,5.0,NE,4.6,-,N/A,,Overcast,40,2012-10-26 11:15:00
7:53 AM,60.1,57.0,90,30.16,4.0,Calm,Calm,-,N/A,,Overcast,0,2012-10-26 11:53:00
8:03 AM,60.8,57.2,88,30.17,4.0,NNE,4.6,-,N/A,,Overcast,30,2012-10-26 12:03:00
8:53 AM,61.0,57.0,87,30.18,6.0,NE,4.6,-,N/A,,Overcast,50,2012-10-26 12:53:00
9:00 AM,60.8,57.2,88,30.19,6.0,NE,3.5,-,N/A,,Overcast,40,2012-10-26 13:00:00
9:23 AM,62.6,57.2,82,30.18,4.0,NNE,3.5,-,N/A,,Haze,30,2012-10-26 13:23:00
9:53 AM,62.1,57.0,84,30.18,4.0,NE,3.5,-,N/A,,Haze,40,2012-10-26 13:53:00
10:53 AM,63.0,57.0,81,30.17,5.0,North,3.5,-,N/A,,Haze,350,2012-10-26 14:53:00
11:53 AM,64.0,55.9,75,30.16,5.0,NNE,4.6,-,N/A,,Haze,20,2012-10-26 15:53:00
12:53 PM,64.9,55.9,73,30.12,10.0,Variable,5.8,-,N/A,,Overcast,0,2012-10-26 16:53:00
1:53 PM,66.0,55.9,70,30.10,10.0,NNW,4.6,-,N/A,,Overcast,340,2012-10-26 17:53:00
2:53 PM,66.0,57.0,73,30.08,10.0,North,4.6,-,N/A,,Overcast,10,2012-10-26 18:53:00
3:49 PM,68.0,57.2,68,30.08,10.0,North,5.8,-,N/A,,Scattered Clouds,10,2012-10-26 19:49:00
3:53 PM,66.9,57.0,70,30.06,10.0,North,5.8,-,N/A,,Partly Cloudy,350,2012-10-26 19:53:00
4:51 PM,66.2,57.2,73,30.07,10.0,NE,6.9,-,N/A,,Overcast,40,2012-10-26 20:51:00
4:53 PM,66.9,57.0,70,30.06,10.0,NNE,6.9,-,N/A,,Overcast,30,2012-10-26 20:53:00
5:53 PM,66.0,57.0,73,30.06,10.0,North,4.6,-,N/A,,Overcast,10,2012-10-26 21:53:00
6:53 PM,62.1,57.0,84,30.06,10.0,NE,4.6,-,N/A,,Clear,50,2012-10-26 22:53:00
7:53 PM,60.1,57.0,90,30.07,9.0,Calm,Calm,-,N/A,,Clear,0,2012-10-26 23:53:00
8:53 PM,60.1,55.9,86,30.06,8.0,North,3.5,-,N/A,,Clear,350,2012-10-27 00:53:00
9:53 PM,59.0,55.9,90,30.06,8.0,NNE,3.5,-,N/A,,Clear,20,2012-10-27 01:53:00
10:53 PM,57.9,55.9,93,30.05,6.0,Calm,Calm,-,N/A,,Overcast,0,2012-10-27 02:53:00
11:01 PM,57.2,55.4,94,30.05,6.0,Calm,Calm,-,N/A,,Overcast,0,2012-10-27 03:01:00
11:14 PM,57.2,55.4,94,30.05,6.0,Calm,Calm,-,N/A,,Overcast,0,2012-10-27 03:14:00
11:53 PM,59.0,57.0,93,30.03,7.0,NNE,3.5,-,N/A,,Overcast,30,2012-10-27 03:53:00